Weather in Pretoriya

Russia / Orenburg Oblast     52°14′46″N   54°19′32″E
temp.,
°C
wind,
m/s
gust,
m/s
humid.,
%
clouds,
%
prec.,
mm/h
press.,
hPa
HPBL,
m
28 september, tue
tue2823:00+3ene6116714 0.0 1011523
02:00+2ne597252 0.0 1013529
05:00+2ne6107991 0.0 1013596
08:00+2ne7128777 0.0 1015662
11:00+4ne81067100 0.1 10161089
14:00+7ne7952100 0.0 10171531
17:00+8ne6946100 0.0 10181644
20:00+6ne495484 0.0 1020324
29 september, wed
wed2923:00+3nne3662100 0.0 1022121
02:00+2ne3771100 0.0 1023140
05:00+1nne3879100 0.0 1024230
08:000nne388272 0.0 1025248
11:00+5nne67515 0.0 1025881
14:00+8nne45385 0.0 10251543
17:00+9ne453562 0.0 10251882
20:00+5nne474687 0.0 1026120
30 september, thu
thu3023:00+4ene235367 0.0 102748
02:00+2ese116539 0.0 102810
05:00+1n21709 0.0 102910
08:00+1nne22715 0.0 103018
11:00+6nne33505 0.0 1030602
14:00+9nnw223985 0.0 10301732
17:00+9nnw333669 0.0 10291801
20:00+5nnw22445 0.0 103010
1 october, fri
fri123:00+4nw12490 0.0 103110
02:00+3wnw11545 0.0 103110
05:00+2w22621 0.0 103110
08:00+2w22655 0.0 103114
11:00+7wnw4553100 0.0 1031497
14:00+7wnw4659100 0.0 1031448
17:00+8wnw4866100 0.0 1030456
20:00+6wnw367577 0.0 1031143
2 october, sat
sat223:00+6wnw257988 0.0 1031126
02:00+7w2680100 0.0 1030155
05:00+7w3584100 0.0 1030153
08:00+8wnw268686 0.0 1031177
11:00+10nw3574100 0.0 1031313
14:00+12nnw3562100 0.0 1031949
17:00+12n2265100 0.0 103173
20:00+10n1171100 0.0 103210